NOZ605 ENBR-ENGM

Flight info

Callsign NOZ605
Flight time 1h 17m
Altitude 27000
Route GOKAB DCT ULVAN DCT ADOPI
Aircraft B738/M-SDE2E3FGHIRWXY/LB1

Departure

Time 2026-05-04 19:50
Airport Bergen Airport, Flesland (ENBR)

Arrival

Time 2026-05-04 21:07
Airport Oslo-Gardermoen International Airport (ENGM)
Time Latitude Longitude Altitude Speed Heading
2026-05-04 19:31 60.28740 5.22904 172 ft 0 kts 80°
2026-05-04 19:41 60.28738 5.22875 172 ft 4 kts 80°
2026-05-04 19:42 60.28733 5.22821 172 ft 4 kts 80°
2026-05-04 19:42 60.28731 5.22797 172 ft 0 kts 80°
2026-05-04 19:45 60.28731 5.22799 172 ft 1 kts 89°
2026-05-04 19:45 60.28725 5.22802 172 ft 1 kts 161°
2026-05-04 19:46 60.28722 5.22778 171 ft 4 kts 270°
2026-05-04 19:46 60.28723 5.22717 170 ft 9 kts 269°
2026-05-04 19:46 60.28709 5.22552 166 ft 11 kts 257°
2026-05-04 19:46 60.28639 5.22496 164 ft 14 kts 169°
2026-05-04 19:47 60.28537 5.22532 164 ft 16 kts 170°
2026-05-04 19:47 60.28422 5.22571 159 ft 19 kts 171°
2026-05-04 19:47 60.28311 5.22573 157 ft 10 kts 219°
2026-05-04 19:47 60.28207 5.22519 152 ft 17 kts 169°
2026-05-04 19:48 60.28132 5.22546 150 ft 11 kts 170°
2026-05-04 19:48 60.28073 5.22531 151 ft 9 kts 215°
2026-05-04 19:48 60.28050 5.22417 150 ft 10 kts 259°
2026-05-04 19:48 60.28053 5.22280 149 ft 10 kts 302°
2026-05-04 19:49 60.28115 5.22228 149 ft 10 kts 350°
2026-05-04 19:49 60.28381 5.22140 158 ft 74 kts 351°
2026-05-04 19:49 60.29113 5.21891 161 ft 137 kts 350°
2026-05-04 19:49 60.30558 5.21367 689 ft 165 kts 349°
2026-05-04 19:50 60.31314 5.21090 1248 ft 162 kts 351°
2026-05-04 19:50 60.32435 5.20751 1957 ft 166 kts 351°
2026-05-04 19:50 60.33660 5.20381 2227 ft 191 kts 350°
2026-05-04 19:50 60.35036 5.19950 2453 ft 214 kts 349°
2026-05-04 19:51 60.36576 5.19453 2645 ft 233 kts 348°
2026-05-04 19:51 60.38245 5.18883 2911 ft 251 kts 348°
2026-05-04 19:51 60.39971 5.18335 3717 ft 250 kts 348°
2026-05-04 19:51 60.41696 5.17730 4389 ft 254 kts 348°
2026-05-04 19:52 60.43448 5.17136 5079 ft 257 kts 348°
2026-05-04 19:52 60.45215 5.16515 5709 ft 259 kts 348°
2026-05-04 19:52 60.47022 5.16393 5974 ft 264 kts
2026-05-04 19:52 60.48672 5.17987 5984 ft 274 kts 39°
2026-05-04 19:53 60.49749 5.21182 6094 ft 282 kts 69°
2026-05-04 19:53 60.50184 5.25091 6770 ft 285 kts 80°
2026-05-04 19:53 60.50123 5.29110 7503 ft 290 kts 107°
2026-05-04 19:53 60.49123 5.32643 8186 ft 292 kts 136°
2026-05-04 19:54 60.47456 5.34918 8891 ft 290 kts 162°
2026-05-04 19:54 60.45515 5.36010 9594 ft 291 kts 171°
2026-05-04 19:54 60.43518 5.36894 10262 ft 297 kts 173°
2026-05-04 19:54 60.41419 5.37832 10499 ft 322 kts 171°
2026-05-04 19:55 60.39385 5.39914 10946 ft 347 kts 141°
2026-05-04 19:55 60.38016 5.44020 11584 ft 363 kts 111°
2026-05-04 19:55 60.37615 5.49090 12165 ft 372 kts 87°
2026-05-04 19:55 60.37922 5.54341 12653 ft 381 kts 77°
2026-05-04 19:56 60.38413 5.59642 13363 ft 386 kts 77°
2026-05-04 19:56 60.38879 5.65018 14075 ft 391 kts 78°
2026-05-04 19:56 60.28740 5.22904 14529 ft 5 kts 80°
2026-05-04 20:17 60.28738 5.22874 172 ft 4 kts 80°
2026-05-04 20:17 60.28733 5.22820 172 ft 4 kts 80°
2026-05-04 20:18 60.28731 5.22797 172 ft 0 kts 80°
2026-05-04 20:22 60.28733 5.22800 172 ft 1 kts 59°
2026-05-04 20:22 60.28740 5.22790 172 ft 1 kts 305°
2026-05-04 20:22 60.28737 5.22746 171 ft 6 kts 265°
2026-05-04 20:22 60.28725 5.22644 168 ft 9 kts 254°
2026-05-04 20:23 60.28704 5.22521 165 ft 9 kts 237°
2026-05-04 20:23 60.28646 5.22494 164 ft 9 kts 172°
2026-05-04 20:23 60.28578 5.22517 164 ft 11 kts 169°
2026-05-04 20:23 60.28502 5.22544 163 ft 11 kts 170°
2026-05-04 20:24 60.28423 5.22573 159 ft 12 kts 170°
2026-05-04 20:24 60.28339 5.22597 157 ft 12 kts 177°
2026-05-04 20:24 60.28288 5.22486 155 ft 12 kts 256°
2026-05-04 20:24 60.28276 5.22326 153 ft 11 kts 267°
2026-05-04 20:25 60.28297 5.22180 157 ft 11 kts 317°
2026-05-04 20:25 60.28392 5.22138 159 ft 34 kts 351°
2026-05-04 20:25 60.28922 5.21956 161 ft 119 kts 350°
2026-05-04 20:25 60.29965 5.21604 327 ft 176 kts 350°
2026-05-04 20:26 60.31200 5.21053 1324 ft 180 kts 348°
2026-05-04 20:26 60.32432 5.20664 2429 ft 186 kts 352°
2026-05-04 20:26 60.33790 5.20278 2893 ft 210 kts 350°
2026-05-04 20:26 60.35300 5.19856 3314 ft 226 kts 349°
2026-05-04 20:27 60.36881 5.19348 3848 ft 239 kts 348°
2026-05-04 20:27 60.38584 5.18740 4367 ft 254 kts 346°
2026-05-04 20:27 60.40335 5.18081 5285 ft 257 kts 348°
2026-05-04 20:27 60.42085 5.17521 6235 ft 259 kts 348°
2026-05-04 20:28 60.43873 5.16931 7136 ft 262 kts 348°
2026-05-04 20:28 60.45687 5.16344 8023 ft 266 kts 351°
2026-05-04 20:28 60.47543 5.16838 8883 ft 279 kts 19°
2026-05-04 20:28 60.49130 5.19190 9720 ft 292 kts 47°
2026-05-04 20:29 60.50015 5.22974 10440 ft 307 kts 75°
2026-05-04 20:29 60.50153 5.27363 11066 ft 321 kts 101°
2026-05-04 20:29 60.49282 5.31539 11683 ft 326 kts 130°
2026-05-04 20:29 60.47583 5.34635 11976 ft 335 kts 160°
2026-05-04 20:30 60.45362 5.36046 12432 ft 339 kts 174°
2026-05-04 20:30 60.43087 5.37104 13147 ft 342 kts 175°
2026-05-04 20:30 60.40812 5.38881 13870 ft 365 kts 154°
2026-05-04 20:30 60.38949 5.42523 14610 ft 385 kts 128°
2026-05-04 20:31 60.37918 5.47591 15213 ft 400 kts 101°
2026-05-04 20:31 60.37914 5.53248 15838 ft 406 kts 81°
2026-05-04 20:31 60.38344 5.58921 16485 ft 412 kts 78°
2026-05-04 20:31 60.38826 5.64673 17152 ft 418 kts 78°
2026-05-04 20:32 60.39272 5.70546 17735 ft 426 kts 80°
2026-05-04 20:32 60.39665 5.76521 18327 ft 432 kts 81°
2026-05-04 20:32 60.40016 5.82503 18935 ft 437 kts 82°
2026-05-04 20:32 60.40359 5.88650 19573 ft 442 kts 82°
2026-05-04 20:33 60.40702 5.94874 20156 ft 447 kts 82°
2026-05-04 20:33 60.41044 6.01169 20736 ft 452 kts 82°
2026-05-04 20:33 60.41385 6.07519 21324 ft 457 kts 82°
2026-05-04 20:33 60.41729 6.13943 21899 ft 461 kts 82°
2026-05-04 20:34 60.42072 6.20411 22399 ft 465 kts 83°
2026-05-04 20:34 60.42418 6.26957 22860 ft 470 kts 83°
2026-05-04 20:34 60.42763 6.33552 23393 ft 473 kts 83°
2026-05-04 20:34 60.43102 6.40111 23858 ft 476 kts 83°
2026-05-04 20:35 60.43376 6.46823 24314 ft 481 kts 88°
2026-05-04 20:35 60.43320 6.53616 24732 ft 486 kts 94°
2026-05-04 20:35 60.43079 6.60443 25296 ft 485 kts 96°
2026-05-04 20:35 60.42795 6.67230 25976 ft 482 kts 96°
2026-05-04 20:36 60.42532 6.73971 26639 ft 479 kts 95°
2026-05-04 20:36 60.42302 6.80691 26893 ft 480 kts 94°
2026-05-04 20:36 60.42097 6.87431 26867 ft 479 kts 94°
2026-05-04 20:36 60.41905 6.94151 26880 ft 478 kts 94°
2026-05-04 20:37 60.41716 7.00790 26886 ft 479 kts 94°
2026-05-04 20:37 60.41518 7.07520 26878 ft 480 kts 94°
2026-05-04 20:37 60.41311 7.14237 26877 ft 479 kts 95°
2026-05-04 20:37 60.41097 7.20961 26876 ft 478 kts 95°
2026-05-04 20:38 60.40880 7.27677 26861 ft 478 kts 95°
2026-05-04 20:38 60.40660 7.34366 26881 ft 476 kts 95°
2026-05-04 20:38 60.40438 7.41038 26876 ft 476 kts 95°
2026-05-04 20:38 60.40215 7.47713 26861 ft 475 kts 95°
2026-05-04 20:39 60.39990 7.54365 26857 ft 474 kts 95°
2026-05-04 20:39 60.39764 7.60934 26853 ft 473 kts 95°
2026-05-04 20:39 60.39533 7.67537 26843 ft 466 kts 95°
2026-05-04 20:39 60.39304 7.73989 26838 ft 454 kts 95°
2026-05-04 20:40 60.39079 7.80261 26840 ft 441 kts 95°
2026-05-04 20:40 60.38857 7.86370 26838 ft 429 kts 96°
2026-05-04 20:40 60.38639 7.92282 26836 ft 416 kts 96°
2026-05-04 20:40 60.38424 7.98029 26838 ft 403 kts 96°
2026-05-04 20:41 60.38215 8.03592 26833 ft 391 kts 96°
2026-05-04 20:41 60.38007 8.09021 26846 ft 385 kts 96°
2026-05-04 20:41 60.37796 8.14434 26867 ft 390 kts 96°
2026-05-04 20:41 60.37582 8.19867 26846 ft 396 kts 96°
2026-05-04 20:42 60.37361 8.25427 26835 ft 397 kts 96°
2026-05-04 20:42 60.37140 8.30962 26823 ft 395 kts 96°
2026-05-04 20:42 60.36917 8.36480 26750 ft 393 kts 96°
2026-05-04 20:42 60.36690 8.42030 26108 ft 404 kts 96°
2026-05-04 20:43 60.36451 8.47815 25116 ft 423 kts 96°
2026-05-04 20:43 60.36197 8.53852 24188 ft 441 kts 96°
2026-05-04 20:43 60.35936 8.60051 23722 ft 443 kts 96°
2026-05-04 20:43 60.35679 8.66135 23453 ft 437 kts 97°
2026-05-04 20:44 60.35421 8.72196 23182 ft 431 kts 97°
2026-05-04 20:44 60.35162 8.78216 22800 ft 429 kts 97°
2026-05-04 20:44 60.34899 8.84213 22440 ft 428 kts 97°
2026-05-04 20:44 60.34635 8.90176 22108 ft 424 kts 97°
2026-05-04 20:45 60.34370 8.96078 21836 ft 420 kts 97°
2026-05-04 20:45 60.34105 9.01919 21532 ft 417 kts 97°
2026-05-04 20:45 60.33839 9.07732 21174 ft 415 kts 97°
2026-05-04 20:45 60.33575 9.13439 20856 ft 413 kts 97°
2026-05-04 20:46 60.33308 9.19187 20557 ft 409 kts 97°
2026-05-04 20:46 60.33043 9.24861 20267 ft 405 kts 97°
2026-05-04 20:46 60.32775 9.30520 19933 ft 404 kts 98°
2026-05-04 20:46 60.32513 9.36143 19584 ft 402 kts 95°
2026-05-04 20:47 60.32730 9.41745 19221 ft 401 kts 73°
2026-05-04 20:47 60.33494 9.47116 18898 ft 397 kts 71°
2026-05-04 20:47 60.34268 9.52449 18551 ft 394 kts 71°
2026-05-04 20:47 60.34773 9.55968 18322 ft 394 kts 71°
2026-05-04 20:48 60.35758 9.62999 17843 ft 392 kts 72°
2026-05-04 20:48 60.36482 9.68287 17533 ft 390 kts 72°
2026-05-04 20:48 60.37194 9.73563 17222 ft 388 kts 72°
2026-05-04 20:48 60.37660 9.77033 17052 ft 385 kts 72°
2026-05-04 20:49 60.38592 9.83983 16654 ft 382 kts 73°
2026-05-04 20:49 60.39050 9.87409 16505 ft 379 kts 73°
2026-05-04 20:49 60.39731 9.92525 16257 ft 376 kts 73°
2026-05-04 20:49 60.40410 9.97612 15956 ft 373 kts 73°
2026-05-04 20:50 60.41081 10.02642 15672 ft 369 kts 73°
2026-05-04 20:50 60.41748 10.07646 15273 ft 368 kts 73°
2026-05-04 20:50 60.42635 10.14305 14643 ft 372 kts 73°
2026-05-04 20:50 60.43307 10.19390 14148 ft 375 kts 73°
2026-05-04 20:51 60.43754 10.22776 13811 ft 377 kts 73°
2026-05-04 20:51 60.44428 10.27899 13329 ft 378 kts 74°
2026-05-04 20:51 60.45103 10.33058 12834 ft 378 kts 74°
2026-05-04 20:51 60.45920 10.38105 12307 ft 376 kts 60°
2026-05-04 20:52 60.48155 10.43230 11658 ft 363 kts 30°
2026-05-04 20:52 60.49612 10.44940 11330 ft 357 kts 19°
2026-05-04 20:52 60.51959 10.46328 10852 ft 348 kts
2026-05-04 20:52 60.54344 10.47108 10466 ft 344 kts
2026-05-04 20:53 60.56607 10.47831 10347 ft 324 kts
2026-05-04 20:53 60.58681 10.49341 10195 ft 313 kts 26°
2026-05-04 20:53 60.60493 10.51563 10087 ft 296 kts 27°
2026-05-04 20:53 60.62223 10.53648 9969 ft 281 kts 26°
2026-05-04 20:54 60.63871 10.55594 9842 ft 267 kts 25°
2026-05-04 20:54 60.65471 10.57462 9770 ft 265 kts 25°
2026-05-04 20:54 60.67035 10.59440 9743 ft 266 kts 37°
2026-05-04 20:54 60.68289 10.62250 9766 ft 269 kts 47°
2026-05-04 20:55 60.69461 10.65177 9760 ft 270 kts 47°
2026-05-04 20:55 60.70660 10.68112 9751 ft 269 kts 46°
2026-05-04 20:55 60.71866 10.71024 9748 ft 268 kts 46°
2026-05-04 20:55 60.73075 10.73933 9744 ft 267 kts 46°
2026-05-04 20:56 60.74206 10.76938 9731 ft 269 kts 59°
2026-05-04 20:56 60.74932 10.80448 9757 ft 268 kts 67°
2026-05-04 20:56 60.75610 10.84005 9747 ft 269 kts 70°
2026-05-04 20:56 60.75806 10.87786 9745 ft 270 kts 102°
2026-05-04 20:57 60.75083 10.91262 9668 ft 269 kts 131°
2026-05-04 20:57 60.73655 10.93662 9386 ft 265 kts 158°
2026-05-04 20:57 60.71959 10.94880 9119 ft 261 kts 168°
2026-05-04 20:57 60.70203 10.95822 8835 ft 261 kts 170°
2026-05-04 20:58 60.68453 10.96726 8548 ft 258 kts 169°
2026-05-04 20:58 60.66729 10.97630 8285 ft 253 kts 169°
2026-05-04 20:58 60.65040 10.98522 8022 ft 250 kts 169°
2026-05-04 20:58 60.63350 10.99420 7762 ft 250 kts 169°
2026-05-04 20:59 60.61675 11.00318 7501 ft 248 kts 169°
2026-05-04 20:59 60.60003 11.01222 7250 ft 248 kts 169°
2026-05-04 20:59 60.58361 11.02108 7006 ft 247 kts 169°
2026-05-04 20:59 60.56702 11.02999 6752 ft 246 kts 169°
2026-05-04 21:00 60.55044 11.03893 6520 ft 245 kts 169°
2026-05-04 21:00 60.53427 11.04770 6459 ft 240 kts 170°
2026-05-04 21:00 60.51806 11.05644 6257 ft 243 kts 170°
2026-05-04 21:00 60.50168 11.06523 6031 ft 244 kts 170°
2026-05-04 21:01 60.48516 11.07414 5809 ft 246 kts 169°
2026-05-04 21:01 60.46891 11.08372 5534 ft 247 kts 161°
2026-05-04 21:01 60.45511 11.10501 5268 ft 248 kts 137°
2026-05-04 21:01 60.44323 11.12925 5013 ft 243 kts 140°
2026-05-04 21:02 60.43132 11.15272 4796 ft 233 kts 140°
2026-05-04 21:02 60.41996 11.17500 4536 ft 223 kts 140°
2026-05-04 21:02 60.40864 11.19499 4289 ft 209 kts 155°
2026-05-04 21:02 60.39575 11.19953 4108 ft 176 kts 203°
2026-05-04 21:03 60.38501 11.18966 4056 ft 175 kts 204°
2026-05-04 21:03 60.37337 11.18310 3854 ft 169 kts 201°
2026-05-04 21:03 60.36220 11.17633 3647 ft 167 kts 201°
2026-05-04 21:03 60.35095 11.16961 3416 ft 167 kts 200°
2026-05-04 21:04 60.33993 11.16319 3189 ft 165 kts 201°
2026-05-04 21:04 60.32903 11.15687 2974 ft 166 kts 200°
2026-05-04 21:04 60.31792 11.15047 2746 ft 167 kts 200°
2026-05-04 21:04 60.30671 11.14402 2525 ft 170 kts 200°
2026-05-04 21:05 60.29526 11.13743 2301 ft 172 kts 199°
2026-05-04 21:05 60.28377 11.13076 2072 ft 173 kts 199°
2026-05-04 21:05 60.27219 11.12409 1845 ft 174 kts 198°
2026-05-04 21:05 60.26058 11.11738 1612 ft 173 kts 197°
2026-05-04 21:06 60.24898 11.11066 1383 ft 173 kts 197°
2026-05-04 21:06 60.23756 11.10418 1150 ft 173 kts 197°
2026-05-04 21:06 60.22622 11.09753 942 ft 165 kts 197°
2026-05-04 21:06 60.21550 11.09133 740 ft 154 kts 197°
2026-05-04 21:07 60.20589 11.08581 678 ft 125 kts 196°
2026-05-04 21:07 60.19963 11.08215 672 ft 62 kts 195°
2026-05-04 21:07 60.19734 11.08118 672 ft 18 kts 182°
2026-05-04 21:07 60.19595 11.08193 671 ft 23 kts 131°
2026-05-04 21:08 60.19632 11.08425 676 ft 22 kts 17°
2026-05-04 21:08 60.19776 11.08505 674 ft 21 kts 15°
2026-05-04 21:08 60.19858 11.08691 677 ft 21 kts 104°
2026-05-04 21:08 60.19817 11.08968 677 ft 21 kts 106°
2026-05-04 21:09 60.19779 11.09241 680 ft 20 kts 106°
2026-05-04 21:09 60.19741 11.09504 681 ft 19 kts 106°
2026-05-04 21:09 60.19648 11.09679 680 ft 17 kts 146°
2026-05-04 21:09 60.19551 11.09665 680 ft 7 kts 195°
2026-05-04 21:10 60.19533 11.09655 680 ft 0 kts 195°